Location: Beccas
(43.4309°N, 0.1528°E)
Time: 09:30:52
(UTC+00:00)

Cosmos 494 Rocket - Pass Details

Date: 15 October 2021
Orbit: 743 x 770 km, 74.1° (Epoch: 07 December)

Event Time Altitude Azimuth Distance (km) Brightness Sun altitude
Rises 18:26:23 0° 339° (NNW) 3,240 7.5 -13.5°
Reaches altitude 10° 18:28:47 10° 340° (NNW) 2,306 6.8 -14.0°
Maximum altitude 18:34:01 90° 273° (W) 765 4.0 -14.9°
Drops below altitude 10° 18:39:11 10° 161° (SSE) 2,272 6.2 -15.9°
Sets 18:41:32 0° 162° (SSE) 3,188 7.0 -16.3°
